FDX524 LIMC-VHHH

Flight info

Callsign FDX524
Flight time N/A
Altitude 28000
Route OSKOR DCT NEVNI DCT NOBMI DCT ELTAR DCT BARPI/N0495F290 DCT MAVIT DCT LAMIT DCT ASNEL DCT DINRO N743 UDROS UM859 KARDE UL851 TOLUN/N0493F310 UL851 TBN UM11 REBLO M11 MATAL T916 BALUN/K0913F310 T916 KUNAS N193 SR L163 TISIB L141 MALEX/K0902F330 L141 KAMUD/K0906S1010 W186 SADAN Y1 OMBON W245 OVRAL B330 NIXID/K0913S1070 B330 KWE W181 DUDIT A599 POU R473 SIERA
Aircraft B77L/H-SDE1E2E3FGHIJ2J3J4J5M1RWXY/LB1D1

Departure

Time 2026-05-03 22:33
Airport Milan Malpensa International Airport (LIMC)

Arrival

Time N/A
Airport Hong Kong International Airport (VHHH)
Time Latitude Longitude Altitude Speed Heading
2026-05-03 21:46 45.61492 8.72011 741 ft 0 kts 259°
2026-05-03 22:15 45.61494 8.72026 738 ft 4 kts 261°
2026-05-03 22:15 45.61497 8.72064 737 ft 4 kts 265°
2026-05-03 22:16 45.61500 8.72101 737 ft 4 kts 250°
2026-05-03 22:16 45.61510 8.72125 738 ft 4 kts 220°
2026-05-03 22:16 45.61528 8.72139 738 ft 4 kts 178°
2026-05-03 22:16 45.61553 8.72134 738 ft 2 kts 170°
2026-05-03 22:17 45.61555 8.72134 738 ft 0 kts 170°
2026-05-03 22:20 45.61536 8.72139 739 ft 5 kts 170°
2026-05-03 22:20 45.61504 8.72147 738 ft 5 kts 169°
2026-05-03 22:21 45.61461 8.72159 738 ft 9 kts 169°
2026-05-03 22:21 45.61400 8.72175 739 ft 9 kts 169°
2026-05-03 22:21 45.61339 8.72193 739 ft 9 kts 168°
2026-05-03 22:21 45.61277 8.72210 738 ft 9 kts 169°
2026-05-03 22:22 45.61216 8.72227 738 ft 9 kts 169°
2026-05-03 22:22 45.61154 8.72244 740 ft 9 kts 169°
2026-05-03 22:22 45.61093 8.72261 740 ft 9 kts 169°
2026-05-03 22:22 45.61032 8.72278 738 ft 9 kts 169°
2026-05-03 22:23 45.60978 8.72293 740 ft 7 kts 169°
2026-05-03 22:23 45.60928 8.72306 739 ft 7 kts 169°
2026-05-03 22:23 45.60879 8.72320 739 ft 7 kts 169°
2026-05-03 22:23 45.60819 8.72337 739 ft 10 kts 168°
2026-05-03 22:24 45.60753 8.72355 738 ft 10 kts 168°
2026-05-03 22:24 45.60690 8.72380 739 ft 9 kts 155°
2026-05-03 22:24 45.60650 8.72441 739 ft 9 kts 116°
2026-05-03 22:24 45.60637 8.72523 739 ft 9 kts 98°
2026-05-03 22:25 45.60630 8.72607 739 ft 9 kts 96°
2026-05-03 22:25 45.60623 8.72692 741 ft 9 kts 96°
2026-05-03 22:25 45.60617 8.72777 741 ft 9 kts 96°
2026-05-03 22:25 45.60610 8.72870 738 ft 11 kts 96°
2026-05-03 22:26 45.60602 8.72980 740 ft 11 kts 96°
2026-05-03 22:26 45.60594 8.73090 739 ft 11 kts 96°
2026-05-03 22:26 45.60597 8.73193 738 ft 10 kts 75°
2026-05-03 22:26 45.60637 8.73266 740 ft 9 kts 33°
2026-05-03 22:27 45.60697 8.73305 738 ft 9 kts 22°
2026-05-03 22:27 45.60757 8.73340 739 ft 9 kts 22°
2026-05-03 22:27 45.60818 8.73375 740 ft 9 kts 22°
2026-05-03 22:27 45.60880 8.73403 740 ft 9 kts
2026-05-03 22:28 45.60946 8.73393 739 ft 9 kts 349°
2026-05-03 22:28 45.61020 8.73373 740 ft 13 kts 349°
2026-05-03 22:28 45.61108 8.73348 740 ft 13 kts 349°
2026-05-03 22:28 45.61196 8.73324 738 ft 13 kts 349°
2026-05-03 22:29 45.61283 8.73300 738 ft 13 kts 349°
2026-05-03 22:29 45.61371 8.73275 741 ft 13 kts 349°
2026-05-03 22:29 45.61459 8.73251 741 ft 13 kts 349°
2026-05-03 22:29 45.61540 8.73228 740 ft 9 kts 349°
2026-05-03 22:30 45.61586 8.73223 740 ft 6 kts 15°
2026-05-03 22:30 45.61615 8.73274 738 ft 7 kts 68°
2026-05-03 22:30 45.61628 8.73353 741 ft 10 kts 79°
2026-05-03 22:30 45.61625 8.73446 740 ft 10 kts 111°
2026-05-03 22:31 45.61593 8.73530 739 ft 10 kts 111°
2026-05-03 22:31 45.61587 8.73623 741 ft 10 kts 85°
2026-05-03 22:31 45.61609 8.73701 738 ft 8 kts 46°
2026-05-03 22:31 45.61664 8.73722 738 ft 9 kts 351°
2026-05-03 22:32 45.61713 8.73709 739 ft 7 kts 348°
2026-05-03 22:32 45.61821 8.73680 739 ft 33 kts 348°
2026-05-03 22:32 45.62307 8.73546 742 ft 108 kts 349°
2026-05-03 22:32 45.63282 8.73275 740 ft 176 kts 348°
2026-05-03 22:33 45.64597 8.72907 1075 ft 197 kts 347°
2026-05-03 22:33 45.65958 8.72519 1640 ft 203 kts 353°
2026-05-03 22:33 45.67346 8.72762 2158 ft 208 kts 26°
2026-05-03 22:33 45.68369 8.74213 2688 ft 210 kts 69°
2026-05-03 22:34 45.68533 8.76259 3042 ft 209 kts 89°
2026-05-03 22:34 45.68773 8.78322 3258 ft 215 kts 64°
2026-05-03 22:34 45.69697 8.79992 3514 ft 216 kts 42°
2026-05-03 22:34 45.70848 8.81377 3905 ft 216 kts 39°
2026-05-03 22:35 45.71949 8.82817 4112 ft 222 kts 58°
2026-05-03 22:35 45.72306 8.84956 4175 ft 228 kts 102°
2026-05-03 22:35 45.71959 8.87215 4311 ft 237 kts 97°
2026-05-03 22:35 45.71765 8.89644 4568 ft 251 kts 98°
2026-05-03 22:36 45.71536 8.92135 4924 ft 263 kts 98°
2026-05-03 22:36 45.71280 8.94818 5208 ft 278 kts 98°
2026-05-03 22:36 45.71015 8.97596 5708 ft 285 kts 98°
2026-05-03 22:36 45.70746 9.00425 6329 ft 289 kts 98°
2026-05-03 22:37 45.70474 9.03288 6951 ft 291 kts 99°
2026-05-03 22:37 45.70201 9.06165 7555 ft 293 kts 99°
2026-05-03 22:37 45.69928 9.09064 8136 ft 296 kts 99°
2026-05-03 22:37 45.69650 9.12002 8727 ft 298 kts 99°
2026-05-03 22:38 45.69369 9.14959 9322 ft 301 kts 99°
2026-05-03 22:38 45.69087 9.17937 9911 ft 303 kts 100°
2026-05-03 22:38 45.68801 9.20950 10409 ft 309 kts 100°
2026-05-03 22:38 45.68504 9.24041 10587 ft 327 kts 100°
2026-05-03 22:39 45.68184 9.27344 10750 ft 345 kts 99°
2026-05-03 22:39 45.67850 9.30843 10913 ft 364 kts 99°
2026-05-03 22:39 45.67502 9.34488 11322 ft 375 kts 99°
2026-05-03 22:39 45.67143 9.38222 11874 ft 381 kts 99°
2026-05-03 22:40 45.66780 9.41998 12532 ft 385 kts 99°
2026-05-03 22:40 45.66411 9.45804 13222 ft 387 kts 99°
2026-05-03 22:40 45.66037 9.49635 13905 ft 391 kts 99°
2026-05-03 22:40 45.65660 9.53498 14466 ft 394 kts 99°
2026-05-03 22:41 45.65278 9.57406 14921 ft 398 kts 99°
2026-05-03 22:41 45.64909 9.61353 15448 ft 402 kts 97°
2026-05-03 22:41 45.64775 9.65326 15963 ft 407 kts 91°
2026-05-03 22:41 45.64795 9.69389 16473 ft 411 kts 90°
2026-05-03 22:42 45.64828 9.73502 16992 ft 415 kts 90°
2026-05-03 22:42 45.64856 9.77640 17509 ft 418 kts 90°
2026-05-03 22:42 45.64875 9.81823 18034 ft 422 kts 90°
2026-05-03 22:42 45.64887 9.86039 18518 ft 426 kts 90°
2026-05-03 22:43 45.64895 9.90289 18981 ft 429 kts 90°
2026-05-03 22:43 45.64901 9.94572 19434 ft 432 kts 90°
2026-05-03 22:43 45.64904 9.98875 19876 ft 434 kts 90°
2026-05-03 22:43 45.64905 10.03207 20334 ft 437 kts 90°
2026-05-03 22:44 45.64904 10.07568 20760 ft 440 kts 90°
2026-05-03 22:44 45.64900 10.11969 21194 ft 443 kts 90°
2026-05-03 22:44 45.64892 10.16325 21598 ft 446 kts 90°
2026-05-03 22:44 45.64879 10.20772 22043 ft 449 kts 90°
2026-05-03 22:45 45.64863 10.25247 22485 ft 451 kts 90°
2026-05-03 22:45 45.64846 10.29743 22938 ft 455 kts 90°
2026-05-03 22:45 45.64831 10.34282 23385 ft 458 kts 90°
2026-05-03 22:45 45.64817 10.38853 23799 ft 461 kts 90°
2026-05-03 22:46 45.64799 10.43453 24165 ft 463 kts 90°
2026-05-03 22:46 45.64793 10.48065 24532 ft 465 kts 90°
2026-05-03 22:46 45.64797 10.52703 24903 ft 468 kts 90°
2026-05-03 22:46 45.64801 10.57356 25275 ft 470 kts 90°
2026-05-03 22:47 45.64801 10.62048 25638 ft 472 kts 90°
2026-05-03 22:47 45.64786 10.66753 25949 ft 475 kts 90°
2026-05-03 22:47 45.64747 10.71485 26270 ft 477 kts 90°
2026-05-03 22:47 45.64695 10.76252 26593 ft 479 kts 91°
2026-05-03 22:48 45.64639 10.80970 26931 ft 481 kts 91°
2026-05-03 22:48 45.64582 10.85764 27252 ft 483 kts 90°
2026-05-03 22:48 45.64525 10.90578 27563 ft 486 kts 90°
2026-05-03 22:48 45.64466 10.95415 27883 ft 488 kts 90°
2026-05-03 22:49 45.64407 11.00272 28193 ft 490 kts 90°
2026-05-03 22:49 45.64347 11.05146 28490 ft 492 kts 90°
2026-05-03 22:49 45.64285 11.10057 28771 ft 494 kts 90°
2026-05-03 22:49 45.64221 11.14986 29016 ft 497 kts 90°
2026-05-03 22:50 45.64154 11.19946 29070 ft 501 kts 90°
2026-05-03 22:50 45.64013 11.29963 29101 ft 505 kts 90°
2026-05-03 22:51 45.63862 11.39922 29106 ft 503 kts 90°
2026-05-03 22:51 45.63703 11.49921 29108 ft 502 kts 90°
2026-05-03 22:52 45.63535 11.59890 29100 ft 501 kts 90°
2026-05-03 22:52 45.63360 11.69809 29094 ft 501 kts 90°
2026-05-03 22:53 45.63176 11.79759 29101 ft 500 kts 90°
2026-05-03 22:53 45.62982 11.89710 29098 ft 500 kts 90°
2026-05-03 22:54 45.62779 11.99644 29109 ft 500 kts 90°
2026-05-03 22:54 45.62574 12.09373 29105 ft 500 kts 90°
2026-05-03 22:55 45.62356 12.19306 29112 ft 499 kts 90°
2026-05-03 22:55 45.62168 12.27557 29101 ft 499 kts 90°
2026-05-03 22:56 45.61895 12.39095 29102 ft 499 kts 90°
2026-05-03 22:56 45.61693 12.47394 29104 ft 499 kts 90°
2026-05-03 22:57 45.61443 12.57243 29104 ft 499 kts 90°
2026-05-03 22:57 45.61183 12.67140 29099 ft 498 kts 91°
2026-05-03 22:58 45.60914 12.77041 29104 ft 498 kts 91°
2026-05-03 22:58 45.60638 12.86944 29098 ft 498 kts 91°
2026-05-03 22:59 45.60353 12.96841 29096 ft 497 kts 91°
2026-05-03 22:59 45.60061 13.06697 29102 ft 496 kts 91°
2026-05-03 23:00 45.59763 13.16471 29101 ft 495 kts 91°
2026-05-03 23:00 45.59456 13.26280 29105 ft 494 kts 91°
2026-05-03 23:01 45.59140 13.36081 29107 ft 493 kts 91°
2026-05-03 23:01 45.58818 13.45857 29104 ft 493 kts 91°
2026-05-03 23:02 45.58508 13.55571 29108 ft 492 kts 90°
2026-05-03 23:02 45.58383 13.65348 29102 ft 491 kts 89°
2026-05-03 23:03 45.58313 13.75104 29119 ft 491 kts 89°
2026-05-03 23:03 45.58214 13.84862 29100 ft 491 kts 89°
2026-05-03 23:04 45.58088 13.94548 29125 ft 491 kts 89°
2026-05-03 23:04 45.57948 14.04301 29114 ft 490 kts 89°
2026-05-03 23:05 45.57797 14.14009 29125 ft 488 kts 89°
2026-05-03 23:05 45.57640 14.23713 29125 ft 488 kts 89°
2026-05-03 23:06 45.57476 14.33400 29129 ft 487 kts 89°
2026-05-03 23:06 45.57304 14.43064 29119 ft 487 kts 89°
2026-05-03 23:07 45.57124 14.52674 29135 ft 487 kts 89°
2026-05-03 23:07 45.56937 14.62340 29130 ft 487 kts 89°
2026-05-03 23:08 45.56740 14.72006 29107 ft 487 kts 89°
2026-05-03 23:08 45.56534 14.81679 29120 ft 487 kts 89°
2026-05-03 23:09 45.56321 14.91343 29117 ft 487 kts 89°
2026-05-03 23:09 45.56101 15.01003 29108 ft 487 kts 89°
2026-05-03 23:10 45.55874 15.10600 29112 ft 486 kts 89°
2026-05-03 23:10 45.55636 15.20260 29103 ft 486 kts 89°
2026-05-03 23:11 45.55392 15.29908 29097 ft 486 kts 89°
2026-05-03 23:11 45.55139 15.39558 29092 ft 486 kts 89°
2026-05-03 23:12 45.54878 15.49203 29112 ft 486 kts 89°
2026-05-03 23:12 45.54609 15.58781 29090 ft 486 kts 89°
2026-05-03 23:13 45.54332 15.68414 29106 ft 485 kts 89°
2026-05-03 23:13 45.54049 15.78042 29091 ft 485 kts 89°
2026-05-03 23:14 45.53755 15.87656 29107 ft 485 kts 89°
2026-05-03 23:14 45.53456 15.97206 29100 ft 485 kts 89°
2026-05-03 23:15 45.53147 16.06819 29104 ft 485 kts 89°
2026-05-03 23:15 45.52831 16.16426 29104 ft 485 kts 89°
2026-05-03 23:16 45.52506 16.26048 29100 ft 485 kts 89°
2026-05-03 23:16 45.52174 16.35602 29104 ft 485 kts 89°
2026-05-03 23:17 45.51833 16.45207 29104 ft 485 kts 89°
2026-05-03 23:17 45.51485 16.54807 29102 ft 485 kts 89°
2026-05-03 23:18 45.51127 16.64415 29101 ft 485 kts 89°
2026-05-03 23:18 45.50761 16.74015 29100 ft 485 kts 89°
2026-05-03 23:19 45.50390 16.83558 29107 ft 484 kts 89°
2026-05-03 23:19 45.50010 16.93172 29105 ft 484 kts 89°
2026-05-03 23:20 45.49621 17.02759 29108 ft 484 kts 89°
2026-05-03 23:20 45.49224 17.12348 29113 ft 484 kts 89°
2026-05-03 23:21 45.48822 17.21871 29114 ft 484 kts 89°
2026-05-03 23:21 45.48410 17.31454 29115 ft 484 kts 89°
2026-05-03 23:22 45.47775 17.45816 29118 ft 482 kts 89°
2026-05-03 23:22 45.47347 17.55316 29131 ft 482 kts 89°
2026-05-03 23:23 45.46908 17.64857 29124 ft 482 kts 89°
2026-05-03 23:23 45.46461 17.74389 29131 ft 482 kts 90°
2026-05-03 23:24 45.46006 17.83915 29134 ft 482 kts 90°
2026-05-03 23:24 45.45544 17.93450 29137 ft 482 kts 90°
2026-05-03 23:25 45.45075 18.02943 29138 ft 482 kts 90°
2026-05-03 23:25 45.44597 18.12477 29135 ft 482 kts 90°
2026-05-03 23:26 45.44111 18.21992 29137 ft 481 kts 90°
2026-05-03 23:26 45.43618 18.31487 29134 ft 480 kts 90°
2026-05-03 23:27 45.43122 18.40906 29149 ft 479 kts 90°
2026-05-03 23:27 45.42615 18.50366 29156 ft 478 kts 90°
2026-05-03 23:28 45.42103 18.59796 29157 ft 478 kts 90°
2026-05-03 23:28 45.41582 18.69234 29160 ft 477 kts 90°
2026-05-03 23:29 45.41057 18.78595 29163 ft 477 kts 90°
2026-05-03 23:29 45.40521 18.88020 29160 ft 478 kts 90°
2026-05-03 23:30 45.39976 18.97468 29150 ft 478 kts 90°
2026-05-03 23:30 45.39424 19.06897 29152 ft 478 kts 90°
2026-05-03 23:31 45.38864 19.16328 29160 ft 478 kts 90°
2026-05-03 23:31 45.38300 19.25710 29164 ft 478 kts 90°
2026-05-03 23:32 45.37723 19.35147 29163 ft 479 kts 90°
2026-05-03 23:32 45.37139 19.44576 29159 ft 478 kts 90°
2026-05-03 23:33 45.36548 19.54000 29164 ft 478 kts 90°
2026-05-03 23:33 45.35950 19.63406 29161 ft 477 kts 90°
2026-05-03 23:34 45.35346 19.72803 29097 ft 476 kts 91°
2026-05-03 23:34 45.34737 19.82151 29165 ft 478 kts 91°
2026-05-03 23:35 45.34112 19.91611 29178 ft 482 kts 91°
2026-05-03 23:35 45.33476 20.01143 29175 ft 485 kts 91°
2026-05-03 23:36 45.32827 20.10712 29178 ft 487 kts 91°
2026-05-03 23:36 45.32172 20.20236 29171 ft 486 kts 91°
2026-05-03 23:37 45.31509 20.29786 29160 ft 484 kts 91°
2026-05-03 23:37 45.30841 20.39282 29166 ft 481 kts 91°
2026-05-03 23:38 45.30169 20.48721 29167 ft 479 kts 91°
2026-05-03 23:38 45.29492 20.58130 29168 ft 477 kts 91°
2026-05-03 23:39 45.28814 20.67448 29172 ft 477 kts 91°
2026-05-03 23:39 45.28124 20.76836 29170 ft 477 kts 91°
2026-05-03 23:40 45.27544 20.84631 29167 ft 477 kts 91°
2026-05-03 23:40 45.26838 20.94024 29173 ft 477 kts 91°
2026-05-03 23:41 45.26130 21.03341 29177 ft 478 kts 91°
2026-05-03 23:41 45.25410 21.12726 29188 ft 478 kts 91°
2026-05-03 23:42 45.24681 21.22118 29184 ft 478 kts 91°
2026-05-03 23:42 45.23947 21.31483 29187 ft 476 kts 91°
2026-05-03 23:43 45.23361 21.40781 29184 ft 474 kts 90°
2026-05-03 23:43 45.22856 21.50111 29186 ft 472 kts 89°
2026-05-03 23:44 45.22338 21.59392 29184 ft 471 kts 90°
2026-05-03 23:44 45.21792 21.68650 29180 ft 470 kts 90°
2026-05-03 23:45 45.21233 21.77881 29183 ft 468 kts 90°
2026-05-03 23:45 45.20672 21.87019 29192 ft 467 kts 90°
2026-05-03 23:46 45.20104 21.96197 29177 ft 467 kts 90°
2026-05-03 23:46 45.19528 22.05359 29183 ft 466 kts 90°
2026-05-03 23:47 45.18949 22.14463 29196 ft 466 kts 90°
2026-05-03 23:47 45.18359 22.23620 29196 ft 466 kts 90°
2026-05-03 23:48 45.17763 22.32756 29197 ft 465 kts 90°
2026-05-03 23:48 45.17159 22.41891 29191 ft 465 kts 90°
2026-05-03 23:49 45.16553 22.50949 29199 ft 464 kts 90°
2026-05-03 23:49 45.15937 22.60054 29208 ft 464 kts 90°
2026-05-03 23:50 45.15315 22.69165 29183 ft 464 kts 90°
2026-05-03 23:50 45.14683 22.78271 29178 ft 463 kts 90°
2026-05-03 23:51 45.14049 22.87291 29174 ft 463 kts 90°
2026-05-03 23:51 45.13406 22.96362 29176 ft 462 kts 90°
2026-05-03 23:52 45.12757 23.05417 29181 ft 462 kts 90°
2026-05-03 23:52 45.12103 23.14462 29173 ft 462 kts 90°
2026-05-03 23:53 45.11438 23.23523 29177 ft 461 kts 90°
2026-05-03 23:53 45.10773 23.32510 29171 ft 461 kts 90°
2026-05-03 23:54 45.09776 23.41461 29173 ft 466 kts 98°
2026-05-03 23:54 45.08149 23.50365 29182 ft 466 kts 98°
2026-05-03 23:55 45.06524 23.59258 29175 ft 467 kts 98°
2026-05-03 23:55 45.04912 23.68167 29174 ft 466 kts 98°
2026-05-03 23:56 45.03314 23.77008 29175 ft 467 kts 98°
2026-05-03 23:56 45.01703 23.85894 29179 ft 467 kts 98°
2026-05-03 23:57 45.00083 23.94781 29180 ft 467 kts 98°
2026-05-03 23:57 44.98453 24.03675 29174 ft 467 kts 98°
2026-05-03 23:58 44.96820 24.12542 29178 ft 466 kts 98°
2026-05-03 23:58 44.95178 24.21412 29191 ft 466 kts 98°
2026-05-03 23:59 44.93543 24.30206 29177 ft 465 kts 98°
2026-05-03 23:59 44.91892 24.39043 29186 ft 465 kts 98°
2026-05-04 00:00 44.90238 24.47861 29187 ft 464 kts 98°
2026-05-04 00:00 44.88579 24.56670 29179 ft 464 kts 98°
2026-05-04 00:01 44.86911 24.65473 29182 ft 464 kts 98°
2026-05-04 00:01 44.85239 24.74261 29180 ft 464 kts 99°
2026-05-04 00:02 44.83569 24.82995 29177 ft 465 kts 99°
2026-05-04 00:02 44.81876 24.91810 29174 ft 465 kts 99°
2026-05-04 00:03 44.80178 25.00610 29174 ft 466 kts 99°
2026-05-04 00:03 44.78470 25.09428 29154 ft 467 kts 100°
2026-05-04 00:04 44.76765 25.18183 29162 ft 467 kts 100°
2026-05-04 00:04 44.75037 25.27022 29154 ft 468 kts 101°
2026-05-04 00:05 44.73299 25.35871 29158 ft 469 kts 101°
2026-05-04 00:05 44.71550 25.44729 29156 ft 471 kts 101°
2026-05-04 00:06 44.69791 25.53602 29143 ft 472 kts 102°
2026-05-04 00:06 44.68023 25.62484 29147 ft 472 kts 102°
2026-05-04 00:07 44.66243 25.71379 29141 ft 473 kts 102°
2026-05-04 00:07 44.64466 25.80223 29135 ft 473 kts 103°
2026-05-04 00:08 44.62671 25.89116 29125 ft 473 kts 103°
2026-05-04 00:08 44.60867 25.98017 29130 ft 474 kts 103°
2026-05-04 00:09 44.59056 26.06914 29128 ft 474 kts 103°
2026-05-04 00:09 44.57237 26.15808 29131 ft 474 kts 104°
2026-05-04 00:10 44.55407 26.24724 29133 ft 475 kts 104°
2026-05-04 00:10 44.53513 26.33558 29123 ft 477 kts 108°
2026-05-04 00:11 44.50836 26.42102 29137 ft 478 kts 113°
2026-05-04 00:11 44.48032 26.50585 29130 ft 480 kts 114°
2026-05-04 00:12 44.45260 26.59035 29124 ft 481 kts 114°
2026-05-04 00:12 44.42475 26.67562 29123 ft 482 kts 114°
2026-05-04 00:13 44.39685 26.76096 29121 ft 482 kts 115°
2026-05-04 00:13 44.36888 26.84626 29126 ft 482 kts 115°
2026-05-04 00:14 44.34104 26.93086 29114 ft 481 kts 116°
2026-05-04 00:14 44.31305 27.01563 29116 ft 479 kts 116°
2026-05-04 00:15 44.28513 27.09991 29118 ft 477 kts 117°
2026-05-04 00:15 44.25724 27.18382 29110 ft 475 kts 117°
2026-05-04 00:16 44.22961 27.26669 29109 ft 472 kts 118°
2026-05-04 00:16 44.20183 27.34973 29106 ft 470 kts 118°
2026-05-04 00:17 44.17417 27.43220 29111 ft 468 kts 118°
2026-05-04 00:17 44.14671 27.51380 29105 ft 466 kts 118°
2026-05-04 00:18 44.11913 27.59552 29104 ft 465 kts 118°
2026-05-04 00:18 44.09162 27.67676 29101 ft 463 kts 118°
2026-05-04 00:19 44.06408 27.75785 29105 ft 462 kts 118°
2026-05-04 00:19 44.03658 27.83863 29101 ft 462 kts 118°
2026-05-04 00:20 44.00919 27.91879 29099 ft 461 kts 118°
2026-05-04 00:20 43.98163 27.99921 29093 ft 461 kts 118°
2026-05-04 00:21 43.95406 28.07944 29090 ft 460 kts 118°
2026-05-04 00:21 43.92641 28.15967 29088 ft 460 kts 118°
2026-05-04 00:22 43.89895 28.23912 29085 ft 459 kts 118°
2026-05-04 00:22 43.87131 28.31885 29080 ft 459 kts 118°
2026-05-04 00:23 43.84362 28.39848 29078 ft 458 kts 118°
2026-05-04 00:23 43.81589 28.47800 29078 ft 458 kts 118°
2026-05-04 00:24 43.78807 28.55756 29069 ft 458 kts 118°
2026-05-04 00:24 43.76048 28.63624 29072 ft 457 kts 117°
2026-05-04 00:25 43.73266 28.71540 29070 ft 457 kts 117°
2026-05-04 00:25 43.70451 28.79428 29071 ft 457 kts 120°
2026-05-04 00:26 43.67597 28.85557 29074 ft 455 kts 127°
2026-05-04 00:26 43.63839 28.92623 29066 ft 456 kts 127°
2026-05-04 00:27 43.60095 28.99718 29062 ft 457 kts 126°
2026-05-04 00:27 43.56383 29.06776 29058 ft 458 kts 126°
2026-05-04 00:28 43.52632 29.13902 29054 ft 458 kts 126°
2026-05-04 00:28 43.48879 29.21015 29049 ft 459 kts 126°
2026-05-04 00:29 43.45112 29.28134 29047 ft 459 kts 126°
2026-05-04 00:29 43.41362 29.35203 29039 ft 460 kts 126°
2026-05-04 00:30 43.37561 29.42352 29037 ft 460 kts 126°
2026-05-04 00:30 43.33801 29.49407 29034 ft 460 kts 126°
2026-05-04 00:31 43.30010 29.56504 29027 ft 460 kts 126°
2026-05-04 00:31 43.26213 29.63594 29023 ft 460 kts 126°
2026-05-04 00:32 43.22413 29.70672 29014 ft 461 kts 126°
2026-05-04 00:32 43.18605 29.77750 29014 ft 460 kts 126°
2026-05-04 00:33 43.12914 29.88293 29008 ft 460 kts 126°
2026-05-04 00:34 43.09102 29.95335 29004 ft 460 kts 126°
2026-05-04 00:34 43.05313 30.02320 28997 ft 459 kts 126°
2026-05-04 00:35 43.01503 30.09324 28992 ft 459 kts 126°
2026-05-04 00:35 42.97692 30.16316 28986 ft 459 kts 126°
2026-05-04 00:36 42.93875 30.23300 28985 ft 458 kts 126°
2026-05-04 00:36 42.90047 30.30290 28984 ft 458 kts 126°
2026-05-04 00:37 42.86227 30.37249 28971 ft 458 kts 126°
2026-05-04 00:37 42.82419 30.44172 28968 ft 459 kts 126°
2026-05-04 00:38 42.78585 30.51127 28972 ft 459 kts 126°
2026-05-04 00:38 42.75138 30.58402 28954 ft 456 kts 113°
2026-05-04 00:39 42.73120 30.66579 28953 ft 457 kts 101°
2026-05-04 00:39 42.72244 30.75132 28953 ft 457 kts 97°
2026-05-04 00:40 42.71435 30.83662 28956 ft 458 kts 98°
2026-05-04 00:40 42.70582 30.92259 28947 ft 459 kts 98°
2026-05-04 00:41 42.69698 31.00880 28950 ft 460 kts 98°
2026-05-04 00:41 42.68808 31.09438 28936 ft 460 kts 98°
2026-05-04 00:42 42.67907 31.18042 28933 ft 459 kts 98°
2026-05-04 00:42 42.67000 31.26654 28929 ft 459 kts 98°
2026-05-04 00:43 42.66089 31.35237 28929 ft 458 kts 98°
2026-05-04 00:43 42.65179 31.43749 28923 ft 458 kts 98°
2026-05-04 00:44 42.64259 31.52295 28922 ft 457 kts 99°
2026-05-04 00:44 42.63332 31.60835 28924 ft 457 kts 99°
2026-05-04 00:45 42.62399 31.69384 28921 ft 456 kts 99°
2026-05-04 00:45 42.61467 31.77859 28912 ft 456 kts 99°
2026-05-04 00:46 42.60525 31.86363 28913 ft 455 kts 99°
2026-05-04 00:46 42.59576 31.94880 28905 ft 455 kts 99°
2026-05-04 00:47 42.58617 32.03368 28902 ft 454 kts 100°
2026-05-04 00:47 42.57566 32.11807 28896 ft 453 kts 100°
2026-05-04 00:48 42.56617 32.20205 28893 ft 452 kts 99°